Regional Weather Roundup
Issued by NWS

Home | Current Version | Previous Version | Graphics & Text | Print | Product List | Glossary On
Versions: 1 2 3 4 5 6 7 8 9 10 11 12 13 14 15 16 17 18 19 20 21 22 23 24 25 26 27 28 29 30 31 32 33 34 35 36 37 38 39 40 41 42 43 44 45 46 47 48 49
000
ASUS45 KCYS 271010
RWRWY

WYOMING REGIONAL WEATHER ROUNDUP
NATIONAL WEATHER SERVICE CHEYENNE WY
300 AM MST SAT DEC 27 2014

NOTE:  "FAIR" INDICATES FEW OR NO CLOUDS BELOW 12,000 FEET
WITH NO SIGNIFICANT WEATHER AND/OR OBSTRUCTIONS TO VISIBILITY.

WYZ001-271100-
YELLOWSTONE NATIONAL PARK

CITY           SKY/WX    TMP DP  RH WIND       PRES   REMARKS
LK YELLOWSTONE   N/A    -11 -16  78 NW3       30.06R
W YELLOWSTONE  NOT AVBL

$$
WYZ002>013-054>058-071-098>099-271100-
NORTHERN WYOMING

CITY           SKY/WX    TMP DP  RH WIND       PRES   REMARKS
JACKSON        FAIR      -6  -8  92 N13       30.13R WCI -25
CODY           FAIR      14   1  57 W6        30.04F WCI   5
GREYBULL       FOG        5   4  95 CALM      30.17R VSB 1/4
WORLAND        FAIR       2  -2  83 CALM      30.14S
SHERIDAN       FAIR       2  -3  80 SW3       30.09F
BUFFALO        FAIR      11   2  67 CALM      30.06S
GILLETTE       FAIR       9   6  88 SW5       30.08S WCI   1
HULETT           N/A    N/A N/A N/A MISG        N/A
NEWCASTLE      PTSUNNY   14  10  85 NW3       30.10F

$$
WYZ014>020-022>026-101>103-271100-
CENTRAL WYOMING

CITY           SKY/WX    TMP DP  RH WIND       PRES   REMARKS
BIG PINEY      CLOUDY     1  -4  79 N8        30.10R WCI -13
PINEDALE       CLOUDY     0  -2  92 W3        30.09S
DUBOIS         NOT AVBL
LANDER         FAIR      12   6  77 CALM      30.08R
RIVERTON       MOCLDY    10   6  84 SW7       30.09S WCI  -1
CASPER         CLOUDY    11   6  81 SW15      30.08F WCI  -5
DOUGLAS        CLOUDY     4   0  83 N9        30.11S WCI -10

$$
WYZ021-027>030-104>119-271100-
SOUTHERN WYOMING

CITY           SKY/WX    TMP DP  RH WIND       PRES   REMARKS
EVANSTON       CLOUDY     8   5  87 SW5       30.14R WCI   0
FORT BRIDGER   CLOUDY    11   7  82 W12       30.15R WCI  -3
ROCK SPRINGS   FAIR       4   1  88 SW16      30.10R WCI -15
DIXON          FLURRIES   3  -1  84 E3        30.16R
RAWLINS        MOCLDY     0  -6  76 CALM      30.07S
SARATOGA       CLOUDY    -2  -6  84 S10       30.08R WCI -19
LARAMIE        FAIR      -7  -8  96 SW6       30.02R WCI -20
CHEYENNE       FAIR       7  -1  70 NW12      30.03R WCI  -8
TORRINGTON     FAIR       6   3  87 W8        30.12R WCI  -7
PINE BLUFFS    FAIR      -6  -8  92 MISG      30.09S

$$



USA.gov is the U.S. government's official web portal to all federal, state and local government web resources and services.